Houston Hull, TX

12:43 AM CST on December 07, 2019 (GMT -0600)
Sugar Land Municipal-Hull

Weather History for KSGR - August, 2019

Change the Weather History Date:

Thursday, August 22, 2019

  Actual Average Record
Temperature  
Mean Temperature 84 °F -  
Max Temperature 93 °F 94 °F 103 °F (1948)
Min Temperature 75 °F 73 °F 65 °F (1956)
Cooling Degree Days 19    
Growing Degree Days 34 (Base 50)    
Moisture  
Dew Point 76 °F    
Average Humidity 79    
Maximum Humidity 100    
Minimum Humidity 54    
Precipitation  
Precipitation 0.00 in - - ()
Sea Level Pressure  
Sea Level Pressure 29.93 in    
Wind  
Wind Speed 5 mph ()    
Max Wind Speed 14 mph    
Max Gust Speed 18 mph    
Visibility 10.0 miles    
Events Rain    
Averages and records for this station are not official NWS values.
T = Trace of Precipitation, MM = Missing Value Source: Averaged Metar Reports

Daily Weather History Graph

Daily Weather History Graph

Search for Another Location

Airport or City:

Astronomy

Aug. 22, 2019 Rise Set
Actual Time 6:54 AM CDT 7:56 PM CDT
Civil Twilight 6:29 AM CDT 8:20 PM CDT
Nautical Twilight 6:00 AM CDT 8:50 PM CDT
Astronomical Twilight 5:30 AM CDT 9:20 PM CDT
Moon No Moon Rise 1:01 PM CDT (8/22)
Length of Visible Light 13h 51m
Length of Day
13h 01m
Waning Gibbous, 59% of the Moon is Illuminated
Aug 22
Waning Gibbous
Aug 23
Last Quarter
Aug 30
New
Sep 5
First Quarter
Sep 13
Full

Hourly Weather History & Observations

Time (CDT) Temp. Heat Index Dew Point Humidity Pressure Visibility Wind Dir Wind Speed Gust Speed Precip Events Conditions
12:53 AM 78.1 °F - 75.9 °F 93% 29.96 in 10.0 mi SSE 6.9 mph - N/A   Clear
1:53 AM 79.0 °F - 75.9 °F 90% 29.96 in 10.0 mi South 3.5 mph - N/A   Clear
2:53 AM 78.1 °F - 75.9 °F 93% 29.96 in 10.0 mi SSE 3.5 mph - N/A   Clear
3:53 AM 77.0 °F - 75.0 °F 94% 29.94 in 10.0 mi Calm Calm - N/A   Clear
4:53 AM 77.0 °F - 75.9 °F 96% 29.94 in 10.0 mi SE 3.5 mph - N/A   Clear
5:53 AM 75.9 °F - 75.9 °F 100% 29.94 in 10.0 mi Calm Calm - N/A   Clear
6:53 AM 75.0 °F - 75.0 °F 100% 29.95 in 10.0 mi Calm Calm - N/A   Clear
7:53 AM 80.1 °F 86.4 °F 78.1 °F 94% 29.97 in 10.0 mi Calm Calm - 0.00 in Rain Light Rain
8:53 AM 84.0 °F 94.8 °F 78.1 °F 82% 29.97 in 10.0 mi SSE 5.8 mph - 0.00 in   Clear
9:53 AM 87.1 °F 99.8 °F 78.1 °F 74% 29.98 in 10.0 mi SE 3.5 mph - N/A   Scattered Clouds
10:53 AM 90.0 °F 102.5 °F 77.0 °F 65% 29.98 in 10.0 mi North - - N/A   Partly Cloudy
11:53 AM 90.0 °F 102.5 °F 77.0 °F 65% 29.96 in 10.0 mi SE 4.6 mph - N/A   Clear
12:53 PM 90.0 °F 102.5 °F 77.0 °F 65% 29.94 in 10.0 mi East 10.4 mph - N/A   Partly Cloudy
1:53 PM 90.0 °F 104.5 °F 78.1 °F 68% 29.92 in 10.0 mi SE 12.7 mph - N/A   Clear
2:53 PM 91.9 °F 103.9 °F 75.9 °F 59% 29.90 in 10.0 mi SE 9.2 mph - N/A   Clear
3:53 PM 93.9 °F 105.4 °F 75.0 °F 54% 29.88 in 10.0 mi SE 5.8 mph 17.3 mph N/A   Partly Cloudy
4:53 PM 89.1 °F 99.1 °F 75.0 °F 63% 29.87 in 10.0 mi ESE 12.7 mph - N/A   Clear
5:53 PM 89.1 °F 99.1 °F 75.0 °F 63% 29.87 in 10.0 mi SE 13.8 mph 18.4 mph N/A   Clear
6:53 PM 89.1 °F 99.1 °F 75.0 °F 63% 29.88 in 10.0 mi SE 13.8 mph - N/A   Partly Cloudy
7:53 PM 86.0 °F 96.0 °F 75.9 °F 72% 29.89 in 10.0 mi SE 13.8 mph - N/A   Clear
8:53 PM 84.0 °F 93.7 °F 77.0 °F 79% 29.90 in 10.0 mi SE 10.4 mph - N/A   Partly Cloudy
9:53 PM 82.9 °F 91.8 °F 77.0 °F 82% 29.91 in 10.0 mi SSE 9.2 mph - N/A   Clear
10:53 PM 82.0 °F 90.2 °F 77.0 °F 85% 29.93 in 10.0 mi SSE 10.4 mph - N/A   Clear
11:53 PM 81.0 °F 87.9 °F 77.0 °F 88% 29.92 in 10.0 mi SSE 8.1 mph - N/A   Clear